Temp
18 17 16 17 17 17 17 17 17 17 17 17 16 16 16 17 17 16 16 16 16 17 17 16 16 15 15 15 15 16 15 15 16 16 16 16 16 16 16 14 14 14 15
18 17 16 17 17 17 17 17 17 17 17 17 16 16 16 17 16 15 16 16 17 17 15 15 15 15 16 16 16 16 16 16 16 16 15 16 16 16 15 15 14 15 15
18 16 16 16 17 17 17 17 17 17 17 16 16 16 16 17 16 16 16 16 17 15 14 14 14 16 17 16 16 16 16 16 16 15 14 15 16 16 16 15 15 15 15
18 17 15 16 16 17 17 17 17 16 16 16 16 16 16 16 16 16 16 17 17 14 14 14 16 17 17 16 16 16 16 16 15 14 14 14 16 16 16 16 16 16 15
17 16 16 16 16 16 17 17 16 16 16 15 16 16 16 16 16 16 16 16 14 13 13 15 16 16 16 16 16 16 16 16 15 14 13 14 16 16 16 16 16 16 16
16 16 16 16 16 16 16 16 16 15 16 15 15 16 16 15 15 16 16 15 13 14 16 16 16 16 16 17 17 17 16 16 14 13 14 15 16 16 16 16 16 15 15
16 15 16 16 16 16 16 16 16 15 15 15 15 16 15 15 16 16 16 14 13 16 16 16 16 16 16 16 17 16 16 16 13 13 13 15 16 16 15 15 15 15 15
16 16 15 15 15 16 16 15 15 16 15 15 15 15 15 15 16 17 17 14 14 16 16 16 16 16 16 16 16 16 16 16 13 13 13 15 16 15 15 15 15 15 15
17 15 15 15 15 15 15 15 15 15 16 15 15 15 15 15 16 17 17 14 16 16 16 16 16 16 16 16 16 16 16 16 14 14 13 14 15 15 15 14 14 14 14
18 15 14 14 14 14 15 14 15 16 16 15 15 15 14 14 16 16 16 15 16 16 16 16 16 16 16 16 16 16 16 16 14 15 13 15 15 15 15 14 14 14 14
16 16 15 14 14 14 14 14 14 15 16 16 14 14 14 13 15 16 15 14 15 15 15 16 16 16 16 16 16 16 16 14 14 13 13 15 15 15 14 14 14 14 14
16 16 17 14 14 14 14 14 14 15 15 15 14 14 14 13 12 13 15 15 16 15 15 16 16 16 16 16 16 16 15 14 14 14 13 15 15 14 14 14 14 14 13
16 17 17 15 14 13 14 14 13 13 13 13 13 13 13 13 13 13 15 15 15 15 15 15 16 16 16 14 14 14 14 14 14 13 14 14 14 14 14 14 13 13 13
17 16 16 16 13 13 13 14 14 13 13 13 13 13 13 13 12 12 15 15 15 15 14 15 15 14 14 14 14 14 14 14 14 14 14 14 14 14 13 13 13 13 13
16 17 15 16 16 13 13 13 14 14 13 13 12 12 13 12 13 13 13 13 13 13 13 13 13 13 14 14 14 14 14 14 14 14 13 14 14 13 13 13 13 13 13
16 16 17 16 16 14 12 13 13 14 14 13 12 12 12 12 13 13 13 13 13 13 13 14 14 13 14 14 13 13 14 14 13 13 13 13 13 13 13 13 13 13 13
15 16 15 15 14 12 13 13 13 13 14 14 13 12 13 13 13 13 13 13 15 15 13 13 13 13 13 14 13 14 14 14 13 13 13 13 13 13 13 13 13 13 13
12 14 15 15 15 14 13 14 13 13 13 14 14 13 13 13 13 14 14 13 13 13 14 13 14 14 13 13 13 14 13 13 14 14 14 14 13 13 13 12 12 13 12
13 12 13 14 14 14 14 13 13 13 13 13 14 14 14 13 14 14 14 14 13 13 13 13 13 13 13 13 13 14 14 14 14 14 14 14 14 13 12 12 12 13 13
13 12 12 12 13 14 14 13 13 13 13 13 13 13 13 14 14 13 14 14 13 13 12 12 13 13 13 13 13 13 13 13 14 14 14 14 13 12 12 12 12 12 12
12 12 12 12 13 13 13 13 13 12 13 13 14 14 13 13 13 13 13 13 13 13 12 13 12 13 12 13 14 13 13 14 14 14 14 13 13 12 13 13 13 12 11
11 11 12 11 12 13 12 13 12 13 13 13 13 13 13 13 13 13 13 13 12 13 13 13 12 12 13 13 13 13 13 14 14 13 13 13 12 12 12 13 13 13 12
10 11 12 11 11 11 11 12 11 12 12 13 13 13 13 14 13 13 13 13 13 13 13 13 13 12 12 13 13 13 14 14 14 13 13 12 12 12 11 12 12 12 12
10 10 11 11 11 11 11 11 11 11 11 12 13 13 13 13 13 13 13 13 14 13 13 12 12 12 12 12 12 13 13 13 13 14 13 12 13 12 11 11 11 11 12
10 10 11 11 11 11 11 11 11 10 11 12 11 12 12 13 13 13 12 12 13 12 12 13 12 12 12 12 12 12 12 11 11 11 12 12 11 11 11 10 10 10 10
10 9 11 10 10 11 11 11 11 11 11 11 11 11 12 13 14 14 12 12 11 13 13 11 12 12 12 12 11 11 11 11 11 11 11 11 11 11 10 11 11 10 10
Height
1489 1489 1493 1496 1499 1502 1504 1505 1507 1509 1511 1513 1515 1517 1520 1521 1523 1525 1526 1528 1529 1531 1532 1533 1535 1535 1536 1536 1537 1538 1539 1539 1539 1540 1540 1539 1540 1540 1540 1540 1542 1540 1540
1489 1490 1492 1496 1499 1502 1504 1506 1507 1508 1510 1513 1515 1517 1520 1522 1524 1525 1527 1528 1530 1532 1534 1535 1536 1537 1537 1537 1538 1539 1541 1541 1542 1542 1542 1542 1542 1542 1542 1542 1542 1542 1542
1489 1489 1492 1495 1499 1502 1504 1506 1507 1508 1509 1512 1515 1518 1520 1522 1524 1526 1528 1529 1531 1533 1535 1536 1537 1537 1538 1540 1541 1542 1543 1544 1544 1545 1545 1545 1544 1544 1544 1544 1543 1543 1543
1488 1490 1494 1496 1499 1502 1505 1506 1507 1508 1509 1511 1514 1517 1520 1522 1525 1527 1529 1530 1531 1534 1536 1537 1537 1539 1540 1542 1543 1544 1545 1546 1546 1547 1550 1548 1546 1546 1546 1546 1545 1545 1545
1488 1492 1495 1496 1499 1502 1504 1506 1508 1510 1510 1512 1515 1517 1520 1523 1525 1527 1529 1531 1533 1534 1536 1537 1539 1541 1542 1543 1544 1545 1547 1548 1548 1549 1549 1549 1548 1548 1548 1547 1547 1547 1546
1492 1493 1494 1497 1500 1502 1505 1507 1509 1511 1512 1513 1515 1518 1521 1523 1526 1528 1530 1532 1534 1535 1536 1539 1541 1542 1543 1545 1546 1547 1548 1549 1549 1551 1550 1549 1549 1549 1549 1549 1548 1548 1548
1496 1495 1495 1497 1500 1503 1505 1507 1510 1512 1514 1515 1517 1519 1521 1524 1526 1528 1530 1533 1535 1536 1538 1540 1542 1544 1545 1546 1547 1548 1549 1550 1552 1552 1552 1550 1550 1550 1550 1550 1550 1549 1549
1497 1495 1496 1498 1501 1503 1505 1508 1511 1513 1515 1517 1518 1520 1522 1524 1527 1528 1530 1533 1535 1537 1539 1541 1543 1545 1546 1547 1548 1549 1550 1551 1553 1553 1553 1551 1551 1551 1551 1551 1551 1551 1550
1487 1493 1496 1499 1501 1504 1505 1508 1511 1513 1515 1518 1519 1521 1522 1525 1527 1529 1531 1533 1535 1537 1540 1542 1544 1546 1547 1548 1549 1550 1551 1552 1554 1553 1554 1552 1552 1552 1552 1551 1551 1551 1551
1476 1484 1490 1499 1502 1504 1506 1508 1510 1513 1515 1518 1519 1520 1521 1524 1527 1530 1533 1534 1536 1538 1540 1543 1545 1546 1547 1548 1550 1551 1551 1552 1554 1553 1554 1553 1552 1552 1552 1552 1552 1551 1551
1479 1489 1492 1494 1502 1507 1506 1507 1509 1511 1514 1516 1518 1519 1522 1524 1527 1529 1533 1535 1537 1539 1541 1543 1545 1546 1548 1549 1550 1551 1552 1553 1554 1554 1554 1553 1553 1552 1552 1552 1552 1552 1551
1477 1482 1488 1492 1490 1500 1505 1505 1507 1509 1512 1515 1517 1520 1523 1525 1528 1531 1532 1535 1538 1540 1542 1543 1545 1546 1548 1549 1549 1550 1551 1553 1554 1554 1553 1553 1553 1553 1552 1552 1552 1552 1552
1477 1480 1485 1490 1488 1491 1497 1502 1505 1508 1511 1515 1518 1519 1523 1527 1528 1529 1531 1534 1537 1539 1541 1543 1544 1546 1547 1550 1550 1550 1552 1552 1553 1553 1552 1553 1553 1553 1553 1552 1552 1552 1551
1473 1476 1477 1480 1487 1485 1490 1497 1502 1506 1510 1514 1517 1520 1523 1526 1526 1529 1531 1533 1536 1538 1541 1542 1544 1545 1546 1548 1549 1550 1550 1550 1551 1552 1552 1552 1552 1553 1553 1552 1552 1552 1551
1474 1474 1474 1476 1475 1483 1490 1498 1500 1504 1508 1511 1514 1518 1520 1523 1524 1529 1531 1534 1536 1538 1541 1541 1544 1545 1545 1547 1548 1549 1549 1550 1551 1552 1552 1551 1552 1551 1552 1552 1552 1551 1550
1471 1471 1472 1471 1471 1482 1495 1496 1500 1501 1505 1509 1513 1515 1519 1521 1523 1527 1530 1532 1534 1536 1538 1539 1542 1543 1545 1546 1547 1548 1549 1549 1550 1551 1550 1550 1550 1550 1550 1550 1550 1550 1549
1470 1470 1470 1469 1473 1476 1490 1493 1497 1500 1503 1506 1511 1514 1518 1521 1522 1525 1528 1530 1531 1533 1536 1538 1540 1542 1543 1545 1546 1547 1547 1549 1548 1548 1550 1550 1549 1549 1548 1548 1548 1548 1548
1467 1469 1468 1469 1474 1480 1483 1490 1496 1498 1501 1504 1507 1512 1516 1518 1521 1523 1526 1528 1531 1532 1533 1535 1536 1538 1540 1542 1544 1545 1545 1546 1547 1547 1548 1548 1549 1549 1547 1546 1545 1545 1545
1464 1471 1470 1471 1474 1477 1484 1487 1493 1496 1498 1502 1504 1508 1513 1516 1519 1522 1524 1526 1528 1530 1531 1533 1534 1536 1537 1539 1541 1542 1544 1544 1545 1545 1545 1546 1547 1546 1545 1544 1542 1541 1541
1463 1465 1470 1470 1471 1476 1481 1485 1489 1492 1495 1498 1501 1506 1510 1513 1516 1519 1521 1523 1526 1527 1530 1530 1531 1534 1535 1537 1539 1539 1540 1541 1542 1542 1543 1543 1544 1543 1542 1541 1540 1539 1539
1460 1464 1465 1469 1469 1472 1478 1482 1485 1488 1490 1494 1498 1502 1506 1509 1513 1516 1518 1521 1523 1523 1526 1527 1529 1531 1531 1534 1536 1537 1537 1538 1539 1540 1541 1540 1540 1540 1538 1537 1537 1537 1538
1459 1462 1464 1464 1466 1467 1473 1478 1483 1485 1487 1491 1495 1500 1502 1506 1509 1512 1515 1517 1519 1520 1521 1525 1526 1526 1528 1529 1530 1533 1534 1535 1535 1536 1538 1537 1536 1538 1536 1535 1535 1535 1535
1452 1454 1458 1462 1465 1467 1468 1475 1476 1483 1487 1489 1492 1495 1500 1503 1507 1508 1511 1513 1515 1514 1517 1520 1522 1522 1523 1525 1525 1528 1530 1531 1532 1534 1535 1534 1533 1534 1533 1532 1531 1531 1531
1456 1456 1457 1460 1461 1465 1468 1472 1473 1479 1484 1487 1490 1492 1498 1500 1502 1504 1506 1506 1508 1511 1512 1515 1519 1513 1517 1518 1521 1522 1525 1528 1528 1532 1532 1531 1530 1530 1529 1529 1528 1527 1527
1453 1455 1454 1455 1459 1461 1466 1469 1471 1474 1477 1481 1486 1491 1492 1494 1497 1498 1502 1502 1503 1504 1506 1508 1509 1512 1498 1512 1513 1515 1518 1522 1526 1529 1529 1530 1527 1527 1526 1525 1526 1524 1523
1448 1448 1452 1455 1457 1460 1463 1467 1467 1472 1476 1480 1482 1484 1486 1490 1490 1491 1494 1498 1499 1498 1502 1505 1507 1506 1505 1506 1507 1510 1513 1518 1520 1522 1524 1525 1525 1525 1523 1521 1521 1520 1518
Wind_Speed
14 17 23 19 17 15 13 13 13 16 19 18 16 14 11 11 12 13 14 12 10 10 18 18 16 17 18 16 15 17 18 18 19 16 16 16 16 16 16 18 13 14 14
14 20 23 20 17 15 13 11 11 14 18 20 19 17 13 13 14 15 15 12 11 15 19 17 18 17 17 17 18 19 18 17 16 16 15 15 16 15 15 15 12 13 15
18 20 24 20 18 15 12 11 11 13 17 20 20 19 16 16 17 18 14 13 13 19 18 17 17 19 19 19 18 18 16 15 15 18 16 10 13 13 13 11 10 11 12
20 21 21 21 18 15 13 11 13 13 17 21 21 20 20 19 18 18 14 12 16 20 20 18 18 19 19 18 16 15 14 14 15 18 10 10 11 11 11 10 9 10 10
20 19 21 21 18 16 13 13 15 14 18 22 22 21 21 20 21 16 14 15 18 20 19 19 19 18 17 16 15 14 14 14 15 12 11 10 10 11 10 10 10 9 9
17 18 21 20 18 15 14 16 17 16 17 22 23 22 22 21 19 18 17 18 19 20 22 20 19 17 16 14 14 14 14 13 14 9 9 9 8 9 9 9 9 9 9
13 17 18 20 17 15 15 18 17 17 16 19 22 23 23 21 20 18 19 20 19 21 22 21 19 17 15 14 13 12 11 10 9 8 7 5 7 7 8 8 8 8 8
14 15 14 19 16 14 16 19 17 16 17 19 21 22 22 19 21 20 21 21 20 23 22 20 18 16 14 13 12 10 9 9 7 7 6 4 5 6 7 7 7 8 8
20 11 12 16 17 14 17 19 17 14 19 19 20 23 22 19 18 21 23 21 23 23 21 19 16 14 12 10 9 8 7 6 7 4 5 2 4 5 5 5 6 7 7
36 16 16 14 13 14 18 19 17 14 18 23 20 24 24 19 17 22 23 21 22 22 20 18 15 12 11 9 7 6 5 5 3 3 4 1 2 3 4 4 4 5 6
26 24 19 16 15 15 17 21 18 15 17 25 25 19 19 17 16 23 23 21 21 20 19 16 14 11 9 7 6 5 4 3 2 2 3 2 1 1 2 2 3 4 5
28 36 37 19 14 21 22 22 19 17 17 21 27 23 19 13 14 16 23 22 20 19 17 15 13 11 8 6 6 5 3 4 3 4 6 3 2 1 1 2 3 4 6
37 38 20 39 21 23 25 23 21 16 15 16 18 22 24 15 19 21 22 22 21 19 16 14 12 11 9 7 7 4 5 6 3 4 6 5 4 4 3 2 3 5 6
21 20 29 29 39 25 20 19 23 20 16 16 17 18 17 19 22 18 19 20 18 18 12 12 10 8 10 9 7 6 6 5 4 5 7 6 5 5 4 4 4 6 8
21 18 25 20 39 15 16 16 19 22 20 17 18 20 19 19 21 17 15 15 14 14 13 12 12 11 10 9 8 8 7 6 5 6 6 7 7 6 6 7 7 8 8
22 16 22 31 34 33 20 17 15 21 21 16 17 19 17 17 21 20 17 17 15 15 15 13 11 10 10 10 9 8 7 8 7 7 5 8 9 9 8 9 9 10 10
27 14 27 28 30 30 28 20 17 15 22 24 16 16 18 16 18 17 17 17 16 15 13 13 12 11 10 10 10 10 9 8 8 6 7 6 9 12 11 12 14 13 13
33 26 16 28 28 33 27 22 20 21 17 22 22 19 18 17 16 17 14 13 13 13 15 15 15 14 13 11 10 10 10 9 9 8 8 8 8 9 12 13 16 15 16
30 24 25 29 31 33 31 26 23 21 21 19 17 19 19 19 19 17 17 16 13 15 14 14 13 13 13 12 12 11 11 9 9 8 8 8 10 13 11 12 17 15 16
29 30 25 26 33 26 37 30 26 24 19 20 21 20 20 22 23 19 17 16 13 15 14 14 14 14 13 12 12 12 11 11 10 10 9 9 10 10 9 11 12 10 13
32 33 28 29 36 39 31 39 27 28 24 20 19 20 20 17 18 18 18 16 16 17 16 16 15 16 16 15 14 14 14 12 12 11 10 9 7 7 10 8 8 8 7
24 31 25 24 29 36 39 45 28 28 26 20 18 20 16 16 16 17 18 17 17 17 19 18 19 19 19 19 20 12 11 12 11 11 10 7 6 9 7 9 11 13 11
5 19 21 23 23 23 30 41 26 24 21 21 19 17 17 16 15 15 17 18 22 24 27 26 22 24 23 22 24 12 8 7 11 7 10 6 6 7 6 11 11 12 12
25 12 23 26 18 25 24 29 21 17 22 21 20 19 14 10 12 15 18 19 20 25 25 26 29 26 25 26 23 22 14 7 6 5 9 10 10 9 9 10 11 14 14
25 7 11 20 28 22 23 21 24 21 12 11 19 20 13 10 17 20 16 18 20 17 19 22 21 26 27 27 24 24 21 13 7 8 11 13 13 11 11 11 11 12 14
24 17 9 9 12 13 10 18 16 21 28 16 21 22 24 24 20 23 23 18 17 23 21 22 18 16 21 25 26 25 14 12 18 20 22 19 13 13 16 16 14 13 15
Wind_Direction
169 195 181 187 182 182 182 184 187 191 193 196 194 189 178 173 166 165 164 154 146 135 126 112 122 119 122 127 121 117 110 104 103 97 87 92 95 97 95 83 77 79 76
177 193 184 189 186 188 192 194 194 192 193 194 195 193 183 176 171 163 162 157 150 135 125 137 142 135 134 129 122 118 110 106 99 95 85 88 91 96 95 100 94 88 87
176 187 183 189 191 192 195 199 194 182 186 188 192 192 186 176 172 166 164 157 151 138 139 141 144 137 132 126 121 120 116 108 97 82 75 84 90 91 93 96 94 94 99
177 197 180 188 191 193 196 196 185 176 174 178 182 183 179 177 172 166 165 162 155 142 144 143 135 132 131 130 127 123 118 112 104 86 87 82 86 91 89 86 87 94 99
186 182 189 190 189 193 195 190 179 174 167 171 173 173 172 174 173 174 168 154 144 150 151 144 137 135 132 131 129 124 119 111 95 92 98 95 86 84 83 85 81 78 79
178 169 196 194 192 192 194 186 182 177 173 176 172 173 173 175 169 171 168 158 152 153 149 144 143 138 134 130 128 126 122 115 92 88 81 95 88 83 80 77 76 74 70
181 187 199 200 195 192 194 185 182 184 178 179 178 178 175 178 175 171 163 152 158 153 149 149 149 143 137 132 131 129 126 115 107 103 97 91 85 80 78 73 70 68 66
185 200 197 197 196 198 196 190 186 187 186 183 180 176 175 176 175 171 167 156 156 155 154 154 152 149 144 139 133 129 124 117 102 110 107 87 82 77 75 72 67 61 55
191 184 188 198 196 203 195 190 193 196 193 186 181 176 180 185 172 170 167 160 160 159 159 159 158 155 150 146 141 134 125 116 115 129 102 38 79 82 77 69 62 55 44
205 186 182 192 205 202 195 195 195 201 198 191 183 182 170 176 175 172 171 165 169 166 165 165 165 164 161 157 150 145 138 129 132 117 129 182 97 90 81 63 50 40 31
200 215 226 180 200 201 211 198 199 200 199 192 191 176 170 183 177 177 173 173 177 173 172 172 174 173 172 171 171 168 155 117 193 180 214 212 172 102 72 44 24 18 8
196 210 227 250 190 197 212 204 196 195 194 188 196 192 183 199 175 165 184 185 182 182 183 185 186 186 189 199 203 200 168 222 217 224 244 246 256 267 324 0 2 357 355
215 216 244 257 254 251 202 209 185 185 181 180 186 197 196 172 187 182 193 185 188 191 194 196 199 200 200 203 223 214 203 210 218 235 247 255 261 274 292 314 343 351 348
198 220 233 234 256 271 174 200 194 171 179 183 184 182 194 178 193 186 188 188 192 196 196 203 213 214 216 215 218 211 226 227 215 242 267 270 272 277 288 304 324 335 333
209 223 221 209 229 238 180 200 202 192 184 181 183 181 184 185 187 179 183 189 190 203 200 205 206 216 224 227 221 224 224 225 230 236 237 275 272 273 283 292 299 303 310
217 210 223 221 228 234 208 193 213 206 188 190 191 183 186 188 187 186 187 193 199 201 207 213 221 217 221 222 226 229 225 228 225 238 241 279 286 278 282 289 289 292 291
218 216 215 217 221 204 201 193 198 220 204 185 193 195 190 191 193 194 197 203 210 216 212 217 217 220 224 225 223 227 233 231 243 244 241 239 282 296 292 285 286 286 286
220 222 230 220 230 216 189 208 215 209 208 202 190 194 196 199 198 202 204 210 213 217 224 226 226 227 223 225 230 227 226 228 230 227 240 253 266 271 288 301 295 288 282
241 227 232 234 226 225 198 212 223 215 205 205 205 202 204 204 209 206 211 213 219 226 230 225 223 222 223 219 221 219 227 226 233 240 239 260 266 271 278 276 288 294 281
216 229 234 231 221 217 204 217 215 209 203 203 196 204 216 212 217 220 218 221 218 233 226 227 223 223 218 225 225 224 223 229 233 238 240 250 260 268 282 284 294 310 296
224 233 234 224 226 210 213 213 210 207 196 202 206 209 211 212 217 221 227 228 219 224 235 235 230 223 227 210 221 224 225 233 235 240 243 241 253 275 287 297 304 301 296
211 217 224 224 225 218 219 214 214 208 198 197 207 212 215 220 228 233 240 229 226 234 231 230 230 223 224 217 211 214 226 229 229 228 219 244 233 265 289 295 290 291 281
275 209 223 212 214 215 216 212 219 208 206 205 203 205 220 237 233 238 240 249 238 237 240 233 231 226 222 217 215 200 211 220 200 212 232 228 265 270 265 282 292 288 281
258 286 216 216 198 218 208 197 207 198 215 215 220 217 226 240 259 250 250 253 258 254 255 256 243 248 222 224 219 217 212 218 182 208 228 275 290 275 268 275 286 288 285
215 258 206 222 230 244 215 214 223 223 233 240 232 219 222 281 312 272 258 251 253 258 267 273 264 254 244 225 217 214 215 220 227 250 277 276 273 297 278 272 270 284 288
204 201 227 207 206 204 236 227 221 234 237 268 238 230 242 255 298 291 246 244 246 255 278 259 263 263 278 255 231 216 198 233 253 261 275 267 270 264 267 282 289 281 279